Regional Weather Roundup
Issued by NWS State College, PA

Home | Current Version | Previous Version | Text Only | Print | Product List | Glossary On
Versions: 1 2 3 4 5 6 7 8 9 10 11 12 13 14 15 16 17 18 19 20 21 22 23 24 25 26 27 28 29 30 31 32 33 34 35 36 37 38 39 40 41 42 43 44 45 46 47 48 49 50
000
ASUS41 KCTP 191910
RWRCTP
PHLRWRCTP ALL

REGIONAL WEATHER ROUNDUP
NATIONAL WEATHER SERVICE STATE COLLEGE PA
200 PM EST FRI JAN 19 2018

Note: "fair" indicates few or no clouds below 12,000 feet with no
significant weather and/or obstructions to visibility.

* = STATION THAT DOES NOT REPORT PRECIPITATION /E.G. RAIN...SNOW...ETC/
    THUNDER OR FOG.

PAZ002>004-007>009-013>016-020>023-029>032-192000-
WESTERN PENNSYLVANIA

CITY           SKY/WX    TMP DP  RH WIND       PRES   REMARKS
ERIE           FAIR      34  18  52 S14G24    29.92F
MEADVILLE      FAIR      31  17  56 SW16G23   29.93F
FRANKLIN*      FAIR      34  17  50 S15       29.95F
NEW CASTLE     FAIR      35  17  47 SW9       30.00F
BEAVER COUNTY  SUNNY     36  18  48 S12G21    30.00F
BUTLER*        FAIR      34  16  47 S12       30.01F
PITTSBURGH INT FAIR      35  16  45 SW14      30.02F
PITTSBURGH     FAIR      35  15  44 S17G23    30.02F
INDIANA*       SUNNY     34  18  51 SW17G23   30.04F
LATROBE        SUNNY     36  16  44 SW17G29   30.05F
WASHINGTON CO* FAIR      38  15  39 SW9G21    30.07F
$$

PAZ004>006-010>012-017>019-024>028-033>037-041-042-045-046-049>053-192000-
CENTRAL PENNSYLVANIA

CITY           SKY/WX    TMP DP  RH WIND       PRES   REMARKS
BRADFORD       FAIR      33  18  53 SW8G20    29.89S
DUBOIS         FAIR      31  15  52 SW17G26   29.94F
CLEARFIELD     FAIR      36  16  44 SW21G30   29.96F
JOHNSTOWN      FAIR      36  18  48 W20G30    29.96F
ALTOONA        FAIR      41  21  44 SW10G21   29.98F
STATE COLLEGE  SUNNY     39  21  48 SW14G25   29.96F
WILLIAMSPORT   FAIR      38  18  44 W5        29.97F
SELINSGROVE    FAIR      39  16  39 SW6       29.99F
FT INDIANTOWN  FAIR      39  19  43 S9        29.99F
CAPITAL CITY   FAIR      42  19  39 W12       30.01F
HARRISBURG     PTSUNNY   42  20  41 W12       30.01F
YORK           FAIR      42  20  41 SW9       30.02F
$$

PAZ038>040-043-044-047-048-054-055-060>062-067>071-192000-
EASTERN PENNSYLVANIA

CITY           SKY/WX    TMP DP  RH WIND       PRES   REMARKS
SCRANTON       FAIR      33  17  51 SW9G20    29.94F
MOUNT POCONO   FAIR      32  17  54 W22G35    29.88F
ALLENTOWN      FAIR      36  19  50 SW12      30.00F
QUAKERTOWN*    FAIR      36  18  48 MISG      30.01S
READING        FAIR      36  21  54 SW8       30.01F
LANCASTER      FAIR      40  21  46 W7        30.02F
COATESVILLE    FAIR      39  19  45 W8        30.02F
POTTSTOWN      FAIR      37  17  44 VRB3      30.03F
BLUE BELL      FAIR      37  19  48 W7        30.03S
DOYLESTOWN     FAIR      37  17  44 SW7       30.00F
WILLOW GROVE   NOT AVBL
NORTH PHILA    FAIR      45  19  35 W8        30.04F
PHILADELPHIA   PTSUNNY   44  15  31 W15       30.04F
$$




USA.gov is the U.S. government's official web portal to all federal, state and local government web resources and services.